This demonstration page uses our WeatherBlox Daily Observations layout. Learn more.

Left ArrowRight Arrow

44.8408, -93.29828

Hourly Observations for July 28, 2021

Temp ( °F °C ) Dew Point ( °F °C ) Humidity (%) Winds ( mph kmh ) Pressure ( in mb ) Visibility ( mi km ) Precip ( " mm )
12:53 am 00:53 Partly Cloudy 80 26.7 72 22.2 76 76 ESE 13 20 29.96 1014 10 16 0.00 0.00
1:53 am 01:53 Partly Cloudy 78 25.6 72 22.2 82 82 SE 9 15 29.95 1014 9 14 0.00 0.00
2:53 am 02:53 Partly Cloudy 77 25 69 20.6 77 77 SSE 7 11 29.96 1015 10 16 0.00 0.00
3:53 am 03:53 Partly Cloudy 76 24.4 67 19.4 74 74 ESE 6 9 29.96 1015 10 16 0.00 0.00
4:53 am 04:53 Clear 75 23.9 66 18.9 74 74 SE 8 13 29.94 1014 10 16 0.00 0.00
5:53 am 05:53 Mostly Cloudy 73 22.8 66 18.9 79 79 SE 7 11 29.95 1014 10 16 0.00 0.00
6:53 am 06:53 Cloudy 74 23.3 67 19.4 79 79 SE 6 9 29.95 1014 10 16 0.00 0.00
7:20 am 07:20 Cloudy with Light Rain 74 23.3 67 19.4 79 79 Calm 30.03 1017 9 14 0.00 0.00
7:29 am 07:29 Cloudy with Nearby Thunderstorms 74 23.3 68 20 82 82 N 8 13 30.05 1018 8 13 0.00 0.00
7:38 am 07:38 Cloudy with Thunderstorms 73 22.8 69 20.6 87 87 NW 8 13 30.07 1018 9 14 0.01 0.25
7:53 am 07:53 Cloudy with Thunderstorms 74 23.3 70 21.1 88 88 W 14 22 30.09 1019 10 16 0.01 0.25
8:03 am 08:03 Cloudy with Nearby Thunderstorms 74 23.3 70 21.1 88 88 W 15 24 30.07 1018 10 16 0.00 0.00
8:34 am 08:34 Cloudy with Light Rain 73 22.8 68 20 84 84 WSW 14 22 30.06 1018 8 13 0.01 0.25
8:53 am 08:53 Cloudy with Light Rain 71 21.7 67 19.4 87 87 S 23 37 29.99 1016 8 13 0.04 1.02
9:00 am 09:00 Cloudy with Rain 72 22.2 67 19.4 84 84 S 16 26 29.99 1016 8 13 0.02 0.51
9:53 am 09:53 Cloudy 73 22.8 68 20 84 84 E 10 17 30.00 1016 9 14 0.03 0.76
10:53 am 10:53 Cloudy 75 23.9 67 19.4 76 76 S 14 22 29.97 1015 9 14 0.00 0.00
11:53 am 11:53 Mostly Cloudy 81 27.2 65 18.3 58 58 S 13 20 29.93 1014 10 16 0.00 0.00
12:53 pm 12:53 Mostly Cloudy 86 30 63 17.2 46 46 S 15 24 29.90 1013 10 16 0.00 0.00
1:53 pm 13:53 Mostly Cloudy 89 31.7 64 17.8 43 43 SSW 9 15 29.90 1013 10 16 0.00 0.00
2:53 pm 14:53 Mostly Cloudy 92 33.3 68 20 46 46 S 15 24 29.86 1011 10 16 0.00 0.00
3:53 pm 15:53 Mostly Cloudy 92 33.3 70 21.1 49 49 SSW 12 19 29.86 1011 10 16 0.00 0.00
4:53 pm 16:53 Mostly Cloudy 90 32.2 73 22.8 58 58 SSW 14 22 29.84 1011 10 16 0.00 0.00
5:53 pm 17:53 Cloudy 89 31.7 76 24.4 65 65 S 12 19 29.83 1010 10 16 0.00 0.00
6:53 pm 18:53 Cloudy 89 31.7 78 25.6 70 70 S 9 15 29.80 1009 10 16 0.00 0.00
7:53 pm 19:53 Mostly Cloudy 90 32.2 78 25.6 68 68 SW 9 15 29.77 1008 10 16 0.00 0.00
8:53 pm 20:53 Partly Cloudy 90 32.2 72 22.2 56 56 WSW 16 26 29.73 1007 10 16 0.00 0.00
9:53 pm 21:53 Mostly Cloudy 89 31.7 74 23.3 61 61 W 17 28 29.76 1008 10 16 0.00 0.00
10:15 pm 22:15 Mostly Cloudy with Thunderstorms 89 31.7 76 24.4 65 65 W 16 26 29.72 1007 10 16 0.00 0.00
10:31 pm 22:31 Mostly Cloudy with Nearby Thunderstorms 88 31.1 77 25 70 70 WNW 15 24 29.74 1007 10 16 0.00 0.00
10:46 pm 22:46 Mostly Cloudy 87 30.6 73 22.8 63 63 NNW 21 33 29.77 1008 10 16 0.00 0.00
10:53 pm 22:53 Mostly Cloudy with Nearby Thunderstorms 86 30 73 22.8 65 65 N 12 19 29.80 1009 10 16 0.00 0.00
11:15 pm 23:15 Mostly Cloudy 85 29.4 72 22.2 65 65 NNE 15 24 29.79 1009 10 16 0.00 0.00
11:53 pm 23:53 Mostly Clear 83 28.3 72 22.2 70 70 N 13 20 29.83 1010 10 16 0.00 0.00

Powered by AerisWeather